Location: Three Guys Observatory
(38.6418°N, 87.1521°W)
Time: 10:28:12
(UTC-05:00)

ISS - Visible Passes

Search period start: 30 January 2015 00:00
Search period end: 09 February 2015 00:00
Orbit: 400 x 408 km, 51.6° (Epoch: 30 January)

Date Brightness Start Highest point End Pass type
(mag) Time Alt. Az. Time Alt. Az. Time Alt. Az.
02 Feb -0.7 20:12:29 10° SSW 20:13:10 15° SSW 20:13:10 15° SSW visible
03 Feb -1.7 19:20:54 10° S 19:23:17 19° SE 19:23:31 19° SE visible
04 Feb -2.6 20:03:52 10° SW 20:06:26 52° WSW 20:06:26 52° WSW visible
05 Feb -3.0 19:11:34 10° SSW 19:14:42 50° SE 19:16:34 22° ENE visible
05 Feb 0.1 20:48:47 10° WNW 20:49:14 12° WNW 20:49:14 12° WNW visible
06 Feb -2.0 19:55:44 10° W 19:58:43 33° NNW 19:59:13 31° N visible
07 Feb -3.0 19:02:55 10° WSW 19:06:08 61° NW 19:09:06 12° NE visible
07 Feb -0.1 20:41:24 10° NW 20:41:46 11° NW 20:41:46 11° NW visible
08 Feb -1.1 19:47:56 10° WNW 19:50:21 19° NNW 19:51:32 16° N visible
